This is the latest recevied weather packets stored in our database for station/object SQ6RR-11. If no packets are shown the sender has not sent any weather packets the latest 1 day(s).
| Time | Temp. | Humidity | Pressure | Rain* | Wind** | Luminosity | Snow |
|---|---|---|---|---|---|---|---|
| 1778097095 | 12.78° C | 99% | 1007.4 hPa | 0 mm | - | - | - |
| 1778094957 | 13.33° C | 99% | 1007.6 hPa | 0 mm | - | - | - |
| 1778092256 | 13.89° C | 95% | 1007.4 hPa | 0 mm | - | - | - |
| 1778091990 | 13.89° C | 94% | 1007.2 hPa | 0 mm | - | - | - |
| 1778090396 | 13.89° C | 90% | 1007.3 hPa | 0 mm | - | - | - |
| 1778089824 | 14.44° C | 90% | 1007.3 hPa | 0 mm | - | - | - |
| 1778089291 | 14.44° C | 88% | 1007.5 hPa | 0 mm | - | - | - |
| 1778088211 | 14.44° C | 85% | 1007.1 hPa | 0 mm | - | - | - |
| 1778086375 | 16.67° C | 71% | 1006.2 hPa | 0 mm | - | - | - |
| 1778085852 | 17.22° C | 68% | 1006.3 hPa | 0 mm | - | - | - |
| 1778085294 | 17.78° C | 62% | 1006.5 hPa | 0 mm | - | - | - |
| 1778083916 | 18.33° C | 52% | 1006.9 hPa | 0 mm | - | - | - |
| 1778083642 | 18.89° C | 53% | 1006.9 hPa | 0 mm | - | - | - |
| 1778082854 | 19.44° C | 44% | 1007.1 hPa | 0 mm | - | - | - |
| 1778082347 | 20.56° C | 33% | 1006.9 hPa | 0 mm | - | - | - |
| 1778081792 | 23.33° C | 29% | 1006.7 hPa | 0 mm | - | - | - |
| 1778079682 | 28.89° C | 23% | 1006.7 hPa | 0 mm | - | - | - |
| 1778078330 | 25° C | 25% | 1007 hPa | 0 mm | - | - | - |
| 1778076976 | 27.22° C | 25% | 1007 hPa | 0 mm | - | - | - |
| 1778075907 | 25° C | 27% | 1007.3 hPa | 0 mm | - | - | - |
| 1778075110 | 25.56° C | 30% | 1007.5 hPa | 0 mm | - | - | - |
| 1778073202 | 22.22° C | 34% | 1007.7 hPa | 0 mm | - | - | - |
| 1778071306 | 22.22° C | 36% | 1007.9 hPa | 0 mm | - | - | - |
| 1778071054 | 22.78° C | 36% | 1007.9 hPa | 0 mm | - | - | - |
| 1778070789 | 22.22° C | 35% | 1008 hPa | 0 mm | - | - | - |
* Rain latest hour (hover to see other rain measurements)
** Current wind speed in m/s (hover to see current wind gust speed)